When you browse on this site, cookies collect data to enhance your experience and personalize the content and advertising you see.
Visit our Privacy Policy to learn more. By continuing to use the site, you agree to this use of cookies and data.
  • In France
  • List of Countries
  • For 7 days
  • Water Temperature
  • Weather Map
  • Weather Widgets
  • user-avatar
    Login

    Hourly Weather Baranovichi

    Today, 21 September, Saturday

    Time Temperature Precipitation Wind Pressure Humidity
    00:00 +4°C° 0 mm 2 mps 750 mmHg 82%
    01:00 +4°C° 0 mm 2 mps 750 mmHg 81%
    02:00 +3°C° 0 mm 2 mps 750 mmHg 81%
    03:00 +3°C° 0 mm 2 mps 750 mmHg 81%
    04:00 +3°C° 0 mm 2 mps 750 mmHg 82%
    05:00 +3°C° 0 mm 2 mps 749 mmHg 82%
    06:00 +3°C° 0 mm 3 mps 749 mmHg 80%
    07:00 +4°C° 0 mm 3 mps 749 mmHg 78%
    08:00 +6°C° 0 mm 4 mps 749 mmHg 75%
    09:00 +6°C° 0.2 mm 4 mps 748 mmHg 80%
    10:00 +6°C° 0.2 mm 4 mps 748 mmHg 85%
    11:00 +6°C° 0.2 mm 5 mps 747 mmHg 90%
    12:00 +7°C° 0.3 mm 5 mps 747 mmHg 92%
    13:00 +8°C° 0.3 mm 5 mps 747 mmHg 94%
    14:00 +9°C° 0.3 mm 5 mps 747 mmHg 96%
    15:00 +10°C° 0 mm 5 mps 746 mmHg 94%
    16:00 +10°C° 0 mm 5 mps 746 mmHg 92%
    17:00 +11°C° 0 mm 6 mps 746 mmHg 90%
    18:00 +11°C° 0 mm 6 mps 746 mmHg 90%
    19:00 +11°C° 0 mm 6 mps 746 mmHg 90%
    20:00 +11°C° 0 mm 6 mps 746 mmHg 90%
    21:00 +11°C° 0 mm 6 mps 746 mmHg 91%
    22:00 +10°C° 0 mm 6 mps 745 mmHg 92%
    23:00 +10°C° 0 mm 6 mps 745 mmHg 93%

    Tomorrow, 22 September, Sunday

    Time Temperature Precipitation Wind Pressure Humidity
    00:00 +10°C° 0 mm 6 mps 746 mmHg 92%
    01:00 +10°C° 0 mm 6 mps 746 mmHg 92%
    02:00 +10°C° 0 mm 5 mps 746 mmHg 91%
    03:00 +9°C° 0 mm 5 mps 746 mmHg 93%
    04:00 +9°C° 0 mm 5 mps 746 mmHg 94%
    05:00 +8°C° 0 mm 5 mps 746 mmHg 95%
    06:00 +9°C° 0 mm 5 mps 746 mmHg 94%
    07:00 +9°C° 0 mm 5 mps 746 mmHg 93%
    08:00 +9°C° 0 mm 5 mps 746 mmHg 92%
    09:00 +12°C° 0 mm 5 mps 746 mmHg 87%
    10:00 +13°C° 0 mm 5 mps 746 mmHg 82%
    11:00 +14°C° 0 mm 5 mps 746 mmHg 78%
    12:00 +15°C° 0 mm 5 mps 745 mmHg 72%
    13:00 +16°C° 0 mm 5 mps 745 mmHg 67%
    14:00 +17°C° 0 mm 5 mps 745 mmHg 62%
    15:00 +17°C° 0 mm 5 mps 745 mmHg 65%
    16:00 +17°C° 0 mm 4 mps 745 mmHg 69%
    17:00 +17°C° 0 mm 3 mps 745 mmHg 72%
    18:00 +14°C° 0 mm 3 mps 746 mmHg 77%
    19:00 +13°C° 0 mm 3 mps 746 mmHg 81%
    20:00 +11°C° 0 mm 3 mps 746 mmHg 86%
    21:00 +11°C° 0 mm 3 mps 747 mmHg 79%
    22:00 +10°C° 0 mm 3 mps 747 mmHg 73%
    23:00 +9°C° 0 mm 3 mps 748 mmHg 66%

    Day after tomorrow, 23 September, Monday

    Time Temperature Precipitation Wind Pressure Humidity
    00:00 +8°C° 0 mm 3 mps 748 mmHg 68%
    01:00 +7°C° 0 mm 3 mps 748 mmHg 70%
    02:00 +6°C° 0 mm 2 mps 749 mmHg 73%
    03:00 +4°C° 0 mm 3 mps 749 mmHg 75%
    04:00 +4°C° 0 mm 3 mps 749 mmHg 77%
    05:00 +3°C° 0 mm 3 mps 749 mmHg 80%
    06:00 +4°C° 0 mm 3 mps 749 mmHg 77%
    07:00 +4°C° 0 mm 3 mps 749 mmHg 73%
    08:00 +5°C° 0 mm 3 mps 749 mmHg 70%
    09:00 +7°C° 0 mm 3 mps 749 mmHg 65%
    10:00 +8°C° 0 mm 3 mps 750 mmHg 59%
    11:00 +10°C° 0 mm 3 mps 750 mmHg 54%
    12:00 +10°C° 0 mm 3 mps 750 mmHg 50%
    13:00 +11°C° 0 mm 3 mps 749 mmHg 47%
    14:00 +12°C° 0 mm 3 mps 749 mmHg 43%
    15:00 +12°C° 0 mm 2 mps 749 mmHg 47%
    16:00 +12°C° 0 mm 2 mps 749 mmHg 51%
    17:00 +10°C° 0 mm 2 mps 748 mmHg 54%
    18:00 +9°C° 0 mm 2 mps 748 mmHg 56%
    19:00 +8°C° 0 mm 2 mps 748 mmHg 58%
    20:00 +6°C° 0 mm 2 mps 748 mmHg 59%
    21:00 +6°C° 0 mm 2 mps 748 mmHg 60%
    22:00 +5°C° 0 mm 2 mps 748 mmHg 60%
    23:00 +5°C° 0 mm 2 mps 748 mmHg 61%

    24 September, Tuesday

    Time Temperature Precipitation Wind Pressure Humidity
    00:00 +5°C° 0 mm 2 mps 748 mmHg 62%
    01:00 +4°C° 0 mm 2 mps 748 mmHg 63%
    02:00 +4°C° 0 mm 2 mps 748 mmHg 64%
    03:00 +4°C° 0 mm 2 mps 748 mmHg 66%
    04:00 +3°C° 0 mm 2 mps 748 mmHg 68%
    05:00 +3°C° 0 mm 2 mps 748 mmHg 71%
    06:00 +2°C° 0 mm 3 mps 748 mmHg 68%
    07:00 +3°C° 0 mm 3 mps 748 mmHg 66%
    08:00 +4°C° 0 mm 3 mps 748 mmHg 64%
    09:00 +7°C° 0 mm 3 mps 748 mmHg 59%
    10:00 +9°C° 0 mm 3 mps 748 mmHg 54%
    11:00 +11°C° 0 mm 3 mps 748 mmHg 49%
    12:00 +11°C° 0 mm 3 mps 747 mmHg 47%
    13:00 +12°C° 0 mm 3 mps 747 mmHg 46%
    14:00 +13°C° 0 mm 3 mps 747 mmHg 44%
    15:00 +12°C° 0 mm 3 mps 746 mmHg 48%
    16:00 +12°C° 0 mm 2 mps 746 mmHg 53%
    17:00 +12°C° 0 mm 2 mps 746 mmHg 57%
    18:00 +9°C° 0 mm 2 mps 746 mmHg 60%
    19:00 +8°C° 0 mm 2 mps 746 mmHg 63%
    20:00 +5°C° 0 mm 3 mps 746 mmHg 66%
    21:00 +4°C° 0 mm 3 mps 746 mmHg 67%
    22:00 +4°C° 0 mm 3 mps 746 mmHg 68%
    23:00 +4°C° 0 mm 3 mps 746 mmHg 69%

    25 September, Wednesday

    Time Temperature Precipitation Wind Pressure Humidity
    00:00 +3°C° 0 mm 3 mps 746 mmHg 70%
    01:00 +3°C° 0 mm 3 mps 746 mmHg 71%
    02:00 +2°C° 0 mm 3 mps 746 mmHg 72%
    03:00 +2°C° 0 mm 3 mps 746 mmHg 73%
    04:00 +2°C° 0 mm 3 mps 745 mmHg 74%
    05:00 +2°C° 0 mm 3 mps 745 mmHg 75%
    06:00 +3°C° 0 mm 3 mps 745 mmHg 72%
    07:00 +3°C° 0 mm 4 mps 745 mmHg 68%
    08:00 +4°C° 0 mm 4 mps 745 mmHg 65%
    09:00 +6°C° 0 mm 4 mps 745 mmHg 60%
    10:00 +8°C° 0 mm 5 mps 745 mmHg 55%
    11:00 +10°C° 0 mm 5 mps 745 mmHg 51%
    12:00 +12°C° 0 mm 5 mps 745 mmHg 49%
    13:00 +12°C° 0 mm 5 mps 744 mmHg 48%
    14:00 +13°C° 0 mm 5 mps 744 mmHg 47%
    15:00 +12°C° 0 mm 5 mps 744 mmHg 50%
    16:00 +12°C° 0 mm 4 mps 743 mmHg 53%
    17:00 +11°C° 0 mm 4 mps 743 mmHg 56%
    18:00 +11°C° 0 mm 4 mps 743 mmHg 56%
    19:00 +9°C° 0 mm 5 mps 743 mmHg 56%
    20:00 +9°C° 0 mm 5 mps 743 mmHg 56%
    21:00 +8°C° 0 mm 5 mps 743 mmHg 56%
    22:00 +8°C° 0 mm 5 mps 742 mmHg 56%
    23:00 +8°C° 0 mm 5 mps 742 mmHg 57%

    26 September, Thursday

    Time Temperature Precipitation Wind Pressure Humidity
    00:00 +8°C° 0.6 mm 5 mps 742 mmHg 63%
    01:00 +7°C° 0.6 mm 5 mps 741 mmHg 69%
    02:00 +7°C° 0.6 mm 5 mps 741 mmHg 76%
    03:00 +7°C° 0.9 mm 5 mps 741 mmHg 81%
    04:00 +7°C° 0.9 mm 5 mps 740 mmHg 87%
    05:00 +6°C° 0.9 mm 5 mps 740 mmHg 93%
    06:00 +7°C° 0.7 mm 5 mps 740 mmHg 94%
    07:00 +8°C° 0.7 mm 4 mps 740 mmHg 95%
    08:00 +8°C° 0.7 mm 4 mps 740 mmHg 97%
    09:00 +10°C° 0.1 mm 4 mps 740 mmHg 96%
    10:00 +11°C° 0.1 mm 4 mps 740 mmHg 95%
    11:00 +12°C° 0.1 mm 4 mps 740 mmHg 94%
    12:00 +12°C° 0.1 mm 3 mps 740 mmHg 92%
    13:00 +13°C° 0.1 mm 3 mps 740 mmHg 90%
    14:00 +15°C° 0.1 mm 2 mps 740 mmHg 88%
    15:00 +13°C° 0.5 mm 3 mps 740 mmHg 89%
    16:00 +13°C° 0.5 mm 3 mps 740 mmHg 90%
    17:00 +13°C° 0.5 mm 3 mps 740 mmHg 90%
    18:00 +13°C° 0.3 mm 3 mps 740 mmHg 92%
    19:00 +12°C° 0.3 mm 3 mps 740 mmHg 94%
    20:00 +12°C° 0.3 mm 2 mps 741 mmHg 97%
    21:00 +12°C° 0.2 mm 2 mps 741 mmHg 96%
    22:00 +12°C° 0.2 mm 2 mps 741 mmHg 96%
    23:00 +11°C° 0.2 mm 3 mps 741 mmHg 96%
    Show more